Location: Lombard
(41.8800°N, 88.0080°W)
Time: 08:54:09
(UTC-06:00)

ISS - Visible Passes

Search period start: 03 December 2022 00:00
Search period end: 13 December 2022 00:00
Orbit: 414 x 420 km, 51.6° (Epoch: 03 December)

Date Brightness Start Highest point End Pass type
(mag) Time Alt. Az. Time Alt. Az. Time Alt. Az.
03 Dec -2.6 17:03:49 10° NW 17:06:43 26° NNE 17:09:13 12° ENE visible
03 Dec -1.8 18:40:22 10° WNW 18:42:10 28° WNW 18:42:10 28° WNW visible
04 Dec -3.9 17:52:12 10° NW 17:55:33 84° NNE 17:56:37 40° ESE visible
05 Dec -3.6 17:04:06 10° NW 17:07:23 51° NNE 17:10:38 10° ESE visible
05 Dec -1.3 18:41:23 10° W 18:43:53 20° SW 18:44:19 19° SW visible
06 Dec -2.1 17:52:48 10° WNW 17:55:52 33° SW 17:58:54 10° SSE visible
07 Dec -3.1 17:04:27 10° WNW 17:07:45 59° SW 17:11:03 10° SE visible
08 Dec -0.4 17:54:27 10° WSW 17:55:52 12° SW 17:57:18 10° SSW visible
09 Dec -0.8 17:05:14 10° W 17:07:50 21° SW 17:10:25 10° S visible
